ONEWEB-0134

Last updated on Mon Jan 18 2021 00:02:03 GMT+0000 (Coordinated Universal Time)

1 47280U 20100Y 21017.58334491 -.01471057 00000-0 -80232-1 0 9995 2 47280 87.4455 29.0366 0011998 159.3116 275.2716 15.17444791 1785

Satellite not in orbit